Weather History for Adelaide, SA

Change the Weather History Date:

Wednesday, May 15, 2013

  Actual Average Record
Temperature  
Mean Temperature 58 °F -  
Max Temperature 62 °F 63 °F 75 °F (2014)
Min Temperature 55 °F 47 °F 41 °F (2012)
Degree Days  
Heating Degree Days 6    
Growing Degree Days 8 (Base 50)    
Moisture  
Dew Point 53 °F    
Average Humidity 78    
Maximum Humidity 100    
Minimum Humidity 62    
Precipitation  
Precipitation 0.28 in 0.07 in - ()
Sea Level Pressure  
Sea Level Pressure 29.91 in    
Wind  
Wind Speed 13 mph ()    
Max Wind Speed 20 mph    
Max Gust Speed -    
Visibility 6.7 miles    
Events Rain    
Averages and records for this station are not official NWS values.
T = Trace of Precipitation, MM = Missing Value Source: Averaged Metar Reports

Daily Weather History Graph

Daily Weather History Graph

Search for Another Location

Airport:

Trip Planner

Search our weather history database for the weather conditions in past years. The results will help you decide how hot, cold, wet, or windy it might be!

Date:

Astronomy

May. 15, 2013 Rise Set
Actual Time 7:03 AM ACST 5:21 PM ACST
Civil Twilight 6:36 AM ACST 5:48 PM ACST
Nautical Twilight 6:05 AM ACST 6:18 PM ACST
Astronomical Twilight 5:35 AM ACST 6:48 PM ACST
Moon 10:56 AM ACST (5/15) 9:37 PM ACST (5/15)
Length of Visible Light 11h 12m
Length of Day
10h 18m
Waxing Crescent, 22% of the Moon is Illuminated
May 15
Waxing Crescent
May 18
First Quarter
May 25
Full
Jun 1
Last Quarter
Jun 9
New

Hourly Weather History & Observations

Time (ACST) Temp. Dew Point Humidity Pressure Visibility Wind Dir Wind Speed Gust Speed Precip Events Conditions
12:00 AM 60 °F 52 °F 68% 29.93 in 12 mi SW 13.8 mph - - Rain Light Rain Showers
12:00 AM 60.8 °F 51.8 °F 72% 29.92 in 6.2 mi SW 13.8 mph - N/A   Mostly Cloudy
12:30 AM 59 °F 52 °F 71% 29.93 in - SW 19.6 mph - -  
12:30 AM 59.0 °F 51.8 °F 77% 29.92 in 6.2 mi SW 19.6 mph - N/A   Mostly Cloudy
1:00 AM 59.0 °F 53.6 °F 82% 29.92 in 6.2 mi SW 17.3 mph - N/A   Mostly Cloudy
1:30 AM 60.8 °F 51.8 °F 72% 29.92 in 6.2 mi WSW 18.4 mph - N/A   Mostly Cloudy
2:00 AM 59.0 °F 51.8 °F 77% 29.92 in 6.2 mi WSW 17.3 mph - N/A   Scattered Clouds
2:30 AM 59.0 °F 53.6 °F 82% 29.92 in 6.2 mi SSW 15.0 mph - N/A   Mostly Cloudy
3:00 AM 59 °F 52 °F 71% 29.92 in 12 mi SW 18.4 mph - -   Mostly Cloudy
3:00 AM 59.0 °F 51.8 °F 77% 29.92 in 6.2 mi SW 18.4 mph - N/A   Mostly Cloudy
3:30 AM 60 °F 52 °F 67% 29.91 in - WSW 17.3 mph - -  
3:30 AM 60.8 °F 51.8 °F 72% 29.89 in 6.2 mi WSW 17.3 mph - N/A   Mostly Cloudy
4:00 AM 60.8 °F 51.8 °F 72% 29.89 in 6.2 mi SW 15.0 mph - N/A   Mostly Cloudy
4:30 AM 60.8 °F 51.8 °F 72% 29.89 in 6.2 mi SW 17.3 mph - N/A   Mostly Cloudy
5:00 AM 60.8 °F 51.8 °F 72% 29.89 in 6.2 mi SW 13.8 mph - N/A   Mostly Cloudy
5:30 AM 59.0 °F 53.6 °F 82% 29.89 in 6.2 mi SW 17.3 mph - N/A   Mostly Cloudy
6:00 AM 59 °F 52 °F 72% 29.92 in 19 mi SW 15.0 mph - -   Partly Cloudy
6:00 AM 59.0 °F 51.8 °F 77% 29.92 in 6.2 mi SW 15.0 mph - N/A   Mostly Cloudy
6:30 AM 59 °F 52 °F 71% 29.93 in - SW 13.8 mph - -  
6:30 AM 59.0 °F 51.8 °F 77% 29.92 in 6.2 mi SW 13.8 mph - N/A   Mostly Cloudy
7:00 AM 59.0 °F 51.8 °F 77% 29.92 in 6.2 mi SW 15.0 mph - N/A   Mostly Cloudy
7:30 AM 60.8 °F 51.8 °F 72% 29.92 in 6.2 mi SW 16.1 mph - N/A   Mostly Cloudy
8:00 AM 59.0 °F 53.6 °F 82% 29.92 in 5.0 mi WSW 15.0 mph - N/A   Mostly Cloudy
8:30 AM 60.8 °F 51.8 °F 72% 29.92 in 6.2 mi WSW 15.0 mph - N/A   Mostly Cloudy
9:00 AM 60 °F 53 °F 69% 29.95 in 16 mi WSW 15.0 mph - - Rain Light Rain Showers
9:00 AM 59.0 °F 51.8 °F 77% 29.95 in 6.2 mi WSW 15.0 mph - N/A   Scattered Clouds
9:30 AM 61 °F 53 °F 69% 29.95 in - SW 17.3 mph - -  
9:30 AM 60.8 °F 53.6 °F 77% 29.95 in 5.6 mi SW 17.3 mph - N/A   Mostly Cloudy
10:00 AM 62.6 °F 51.8 °F 68% 29.95 in 6.2 mi WSW 17.3 mph - N/A   Mostly Cloudy
10:30 AM 62.6 °F 53.6 °F 72% 29.95 in 6.2 mi SW 17.3 mph - N/A   Mostly Cloudy
11:00 AM 62.6 °F 51.8 °F 68% 29.92 in 6.2 mi SW 18.4 mph - N/A   Mostly Cloudy
11:30 AM 62.6 °F 51.8 °F 68% 29.92 in 6.2 mi WSW 17.3 mph - N/A   Scattered Clouds
12:00 PM 62 °F 52 °F 62% 29.93 in 16 mi WSW 17.3 mph - -   Mostly Cloudy
12:00 PM 62.6 °F 51.8 °F 68% 29.92 in 6.2 mi WSW 17.3 mph - N/A   Scattered Clouds
12:30 PM 62.6 °F 51.8 °F 68% 29.92 in 6.2 mi SW 17.3 mph - N/A   Scattered Clouds
1:00 PM 62.6 °F 51.8 °F 68% 29.89 in 6.2 mi WSW 19.6 mph - N/A   Scattered Clouds
1:30 PM 62.6 °F 51.8 °F 68% 29.89 in 6.2 mi SW 17.3 mph - N/A   Scattered Clouds
2:00 PM 62.6 °F 50.0 °F 63% 29.89 in 6.2 mi SW 17.3 mph - N/A   Scattered Clouds
2:30 PM 62.6 °F 51.8 °F 68% 29.89 in 6.2 mi SW 13.8 mph - N/A   Mostly Cloudy
3:00 PM 58 °F 53 °F 80% 29.90 in 6 mi SW 13.8 mph - - Rain Light Rain Showers
3:00 PM 59.0 °F 53.6 °F 82% 29.89 in 3.1 mi SW 13.8 mph - N/A Rain Light Rain Showers
3:21 PM 59.0 °F 55.4 °F 88% 29.89 in 5.6 mi WSW 10.4 mph - N/A   Mostly Cloudy
3:30 PM 60 °F 55 °F 77% 29.90 in - WSW 11.5 mph - -  
3:30 PM 60.8 °F 55.4 °F 82% 29.89 in 5.6 mi WSW 11.5 mph - N/A   Mostly Cloudy
4:00 PM 60.8 °F 51.8 °F 72% 29.89 in 6.2 mi SW 9.2 mph - N/A   Mostly Cloudy
4:30 PM 60.8 °F 53.6 °F 77% 29.89 in 6.2 mi SSW 6.9 mph - N/A   Mostly Cloudy
4:37 PM 60.8 °F 53.6 °F 77% 29.89 in 3.1 mi SW 6.9 mph - N/A Rain Light Rain Showers
4:39 PM 59.0 °F 53.6 °F 82% 29.89 in 1.9 mi SW 8.1 mph - N/A Rain Light Rain Showers
4:45 PM 57.2 °F 55.4 °F 94% 29.89 in 1.9 mi WSW 19.6 mph - N/A Rain Light Rain Showers
4:50 PM 57.2 °F 55.4 °F 94% 29.89 in 3.1 mi WSW 17.3 mph - N/A Rain Light Rain Showers
5:00 PM 57.2 °F 53.6 °F 88% 29.89 in 4.3 mi WSW 10.4 mph - N/A Rain Light Rain Showers
5:30 PM 57.2 °F 53.6 °F 88% 29.89 in 6.2 mi SW 4.6 mph - N/A   Mostly Cloudy
6:00 PM 57 °F 55 °F 89% 29.91 in 12 mi WSW 2.3 mph - - Rain Light Rain Showers
6:00 PM 57.2 °F 55.4 °F 94% 29.89 in 6.2 mi WSW 2.3 mph - N/A Rain Light Rain Showers
6:30 PM 57.2 °F 53.6 °F 88% 29.89 in 6.2 mi Calm Calm - N/A   Mostly Cloudy
6:56 PM 57.2 °F 55.4 °F 94% 29.92 in 3.7 mi SE 5.8 mph - N/A Rain Light Rain Showers
7:00 PM 57.2 °F 55.4 °F 94% 29.92 in 3.7 mi SE 5.8 mph - N/A Rain Light Rain Showers
7:18 PM 57.2 °F 53.6 °F 88% 29.92 in 6.2 mi Calm Calm - N/A   Mostly Cloudy
7:30 PM 57.2 °F 55.4 °F 94% 29.92 in 6.2 mi NNE 4.6 mph - N/A   Mostly Cloudy
8:00 PM 55.4 °F 55.4 °F 100% 29.92 in 6.2 mi NE 6.9 mph - N/A   Mostly Cloudy
8:30 PM 57.2 °F 53.6 °F 88% 29.92 in 6.2 mi SE 4.6 mph - N/A   Mostly Cloudy
9:00 PM 57 °F 54 °F 88% 29.94 in 19 mi NE 5.8 mph - -   Partly Cloudy
9:00 PM 57.2 °F 55.4 °F 94% 29.92 in 6.2 mi NE 5.8 mph - N/A   Mostly Cloudy
9:30 PM 59 °F 52 °F 72% 29.94 in - NE 4.6 mph - -  
9:30 PM 59.0 °F 51.8 °F 77% 29.92 in 6.2 mi NE 4.6 mph - N/A   Mostly Cloudy
10:00 PM 59.0 °F 50.0 °F 72% 29.92 in 6.2 mi WNW 1.2 mph - N/A   Mostly Cloudy
10:20 PM 57.2 °F 53.6 °F 88% 29.92 in 4.3 mi SW 15.0 mph - N/A Rain Light Rain Showers
10:30 PM 57.2 °F 53.6 °F 88% 29.92 in 6.2 mi SW 11.5 mph - N/A   Mostly Cloudy
11:00 PM 59.0 °F 53.6 °F 82% 29.92 in 6.2 mi SSE 6.9 mph - N/A   Mostly Cloudy
11:30 PM 57.2 °F 53.6 °F 88% 29.92 in 6.2 mi South 5.8 mph - N/A   Mostly Cloudy